Time,TemperatureF,DewpointF,PressureIn,WindDirection,WindDirectionDegrees,WindSpeedMPH,WindSpeedGustMPH,Humidity,HourlyPrecipIn,Conditions,Clouds,dailyrainin,SolarRadiationWatts/m^2,SoftwareType,DateUTC
2015-04-25 00:01:00,25.0,22.0,29.72,South,187,3.0,-999.0,89,-99.99,,,-99.99,0.000000,,2015-04-25 07:01:00,
2015-04-25 00:21:00,25.0,22.0,29.72,South,187,3.0,-999.0,88,-99.99,,,-99.99,0.000000,,2015-04-25 07:21:00,
2015-04-25 00:31:00,25.0,22.0,29.72,South,187,4.0,-999.0,89,-99.99,,,-99.99,0.000000,,2015-04-25 07:31:00,
2015-04-25 00:41:00,24.0,21.0,29.71,South,187,5.0,-999.0,89,-99.99,,,-99.99,0.000000,,2015-04-25 07:41:00,
2015-04-25 01:01:00,24.0,21.0,29.71,South,187,5.0,-999.0,89,-99.99,,,-99.99,0.000000,,2015-04-25 08:01:00,
2015-04-25 01:11:00,24.0,21.0,29.71,South,187,4.0,-999.0,89,-99.99,,,-99.99,0.000000,,2015-04-25 08:11:00,
2015-04-25 01:21:00,24.0,22.0,29.71,South,187,4.0,-999.0,90,-99.99,,,-99.99,0.000000,,2015-04-25 08:21:00,
2015-04-25 01:31:00,24.0,22.0,29.71,South,187,4.0,-999.0,90,-99.99,,,-99.99,0.000000,,2015-04-25 08:31:00,
2015-04-25 01:42:00,24.0,21.0,29.71,South,187,4.0,-999.0,88,-99.99,,,-99.99,0.000000,,2015-04-25 08:42:00,
2015-04-25 02:01:00,25.0,22.0,29.71,South,187,4.0,-999.0,90,-99.99,,,-99.99,0.000000,,2015-04-25 09:01:00,
2015-04-25 02:21:00,24.0,22.0,29.71,South,187,4.0,-999.0,90,-99.99,,,-99.99,0.000000,,2015-04-25 09:21:00,
2015-04-25 02:31:00,24.0,22.0,29.71,South,187,4.0,-999.0,90,-99.99,,,-99.99,0.000000,,2015-04-25 09:31:00,
2015-04-25 02:41:00,24.0,22.0,29.71,South,187,3.0,-999.0,90,-99.99,,,-99.99,0.000000,,2015-04-25 09:41:00,
2015-04-25 03:01:00,24.0,22.0,29.71,South,187,3.0,-999.0,90,-99.99,,,-99.99,0.000000,,2015-04-25 10:01:00,
2015-04-25 03:21:00,25.0,22.0,29.72,South,187,0.0,-999.0,89,-99.99,,,-99.99,0.000000,,2015-04-25 10:21:00,
2015-04-25 04:01:00,25.0,22.0,29.72,South,187,2.0,-999.0,88,-99.99,,,-99.99,0.000000,,2015-04-25 11:01:00,
2015-04-25 04:11:00,25.0,22.0,29.72,South,187,2.0,-999.0,87,-99.99,,,-99.99,0.000000,,2015-04-25 11:11:00,
2015-04-25 04:31:00,25.0,21.0,29.72,South,187,1.0,-999.0,86,-99.99,,,-99.99,0.000000,,2015-04-25 11:31:00,
2015-04-25 04:41:00,25.0,21.0,29.72,South,187,2.0,-999.0,86,-99.99,,,-99.99,0.000000,,2015-04-25 11:41:00,
2015-04-25 05:01:00,25.0,21.0,29.71,South,187,4.0,-999.0,86,-99.99,,,-99.99,0.000000,,2015-04-25 12:01:00,
2015-04-25 05:11:00,25.0,21.0,29.73,South,187,5.0,-999.0,85,-99.99,,,-99.99,0.000000,,2015-04-25 12:11:00,
2015-04-25 05:21:00,25.0,21.0,29.72,South,187,5.0,-999.0,85,-99.99,,,-99.99,0.000000,,2015-04-25 12:21:00,
2015-04-25 05:31:00,25.0,21.0,29.72,SSE,161,6.0,-999.0,84,-99.99,,,-99.99,0.000000,,2015-04-25 12:31:00,
2015-04-25 05:42:00,25.0,21.0,29.72,SSE,160,7.0,-999.0,84,-99.99,,,-99.99,0.000000,,2015-04-25 12:42:00,
2015-04-25 06:11:00,25.0,21.0,29.71,SSE,160,5.0,-999.0,83,-99.99,,,-99.99,0.000000,,2015-04-25 13:11:00,
2015-04-25 06:21:00,25.0,20.0,29.71,SSE,160,6.0,-999.0,82,-99.99,,,-99.99,7.000000,,2015-04-25 13:21:00,
2015-04-25 06:31:00,25.0,20.0,29.71,SSE,160,7.0,-999.0,81,-99.99,,,-99.99,12.000000,,2015-04-25 13:31:00,
2015-04-25 06:41:00,25.0,20.0,29.71,SSE,160,5.0,-999.0,81,-99.99,,,-99.99,70.000000,,2015-04-25 13:41:00,
2015-04-25 07:01:00,26.0,21.0,29.71,SSE,160,5.0,-999.0,81,-99.99,,,-99.99,105.000000,,2015-04-25 14:01:00,
2015-04-25 07:11:00,26.0,21.0,29.72,SSE,160,5.0,-999.0,81,-99.99,,,-99.99,188.000000,,2015-04-25 14:11:00,
2015-04-25 07:31:00,26.0,21.0,29.72,SSE,160,7.0,-999.0,80,-99.99,,,-99.99,76.000000,,2015-04-25 14:31:00,
2015-04-25 07:41:00,27.0,21.0,29.71,SSE,160,7.0,-999.0,78,-99.99,,,-99.99,98.000000,,2015-04-25 14:41:00,
2015-04-25 08:01:00,26.0,21.0,29.73,SSE,154,7.0,-999.0,81,-99.99,,,-99.99,95.000000,,2015-04-25 15:01:00,
2015-04-25 08:11:00,25.0,21.0,29.73,SSE,153,8.0,-999.0,84,-99.99,,,-99.99,113.000000,,2015-04-25 15:11:00,
2015-04-25 08:21:00,26.0,21.0,29.73,SE,144,8.0,-999.0,82,-99.99,,,-99.99,90.000000,,2015-04-25 15:21:00,
2015-04-25 08:41:00,26.0,22.0,29.74,SE,143,7.0,-999.0,83,-99.99,,,-99.99,158.000000,,2015-04-25 15:41:00,
2015-04-25 09:01:00,26.0,21.0,29.74,SE,143,5.0,-999.0,82,-99.99,,,-99.99,227.000000,,2015-04-25 16:01:00,
2015-04-25 09:11:00,28.0,22.0,29.73,SE,141,6.0,-999.0,79,-99.99,,,-99.99,297.000000,,2015-04-25 16:11:00,
2015-04-25 09:21:00,28.0,22.0,29.72,SE,141,3.0,-999.0,79,-99.99,,,-99.99,258.000000,,2015-04-25 16:21:00,
2015-04-25 09:41:00,28.0,23.0,29.73,SSE,160,3.0,-999.0,82,-99.99,,,-99.99,183.000000,,2015-04-25 16:41:00,
2015-04-25 10:01:00,26.0,23.0,29.76,South,169,1.0,-999.0,87,-99.99,,,-99.99,121.000000,,2015-04-25 17:01:00,
2015-04-25 10:11:00,26.0,23.0,29.76,South,169,3.0,-999.0,87,-99.99,,,-99.99,183.000000,,2015-04-25 17:11:00,
2015-04-25 10:31:00,27.0,24.0,29.74,South,169,3.0,-999.0,87,-99.99,,,-99.99,663.000000,,2015-04-25 17:31:00,
2015-04-25 10:42:00,29.0,25.0,29.74,SSE,155,3.0,-999.0,85,-99.99,,,-99.99,483.000000,,2015-04-25 17:42:00,
2015-04-25 11:01:00,28.0,23.0,29.74,SSE,155,2.0,-999.0,82,-99.99,,,-99.99,418.000000,,2015-04-25 18:01:00,
2015-04-25 11:11:00,30.0,25.0,29.74,SSE,155,2.0,-999.0,83,-99.99,,,-99.99,462.000000,,2015-04-25 18:11:00,
2015-04-25 11:21:00,30.0,25.0,29.75,SSE,155,2.0,-999.0,81,-99.99,,,-99.99,257.000000,,2015-04-25 18:21:00,
2015-04-25 11:31:00,30.0,26.0,29.75,SSE,155,3.0,-999.0,84,-99.99,,,-99.99,417.000000,,2015-04-25 18:31:00,
2015-04-25 11:42:00,30.0,25.0,29.75,SSE,155,2.0,-999.0,83,-99.99,,,-99.99,775.000000,,2015-04-25 18:42:00,
2015-04-25 12:01:00,29.0,24.0,29.75,SSE,155,3.0,-999.0,81,-99.99,,,-99.99,489.000000,,2015-04-25 19:01:00,
2015-04-25 12:11:00,31.0,25.0,29.75,SSE,155,3.0,-999.0,78,-99.99,,,-99.99,297.000000,,2015-04-25 19:11:00,
2015-04-25 12:42:00,30.0,26.0,29.75,SSE,155,2.0,-999.0,85,-99.99,,,-99.99,566.000000,,2015-04-25 19:42:00,